Vorticity
nan nan nan nan nan nan nan nan nan nan nan nan nan nan nan nan nan nan nan nan nan nan nan nan nan nan nan nan nan nan nan nan nan nan nan nan nan nan nan nan nan nan nan nan nan nan nan nan nan nan nan nan nan nan nan nan nan nan nan nan nan nan nan nan nan nan nan nan nan nan nan nan nan nan nan nan nan nan nan nan nan nan nan nan nan nan
nan 7 8 10 12 11 9 10 13 14 12 8 8 9 10 9 7 5 6 8 10 11 11 11 11 11 10 10 12 15 19 19 17 15 13 11 10 10 9 9 9 9 9 9 9 9 9 9 9 9 9 8 9 9 9 10 11 12 14 16 17 19 19 18 16 15 17 21 24 25 25 23 22 21 20 18 16 14 13 12 11 11 12 11 10 nan
nan 6 7 7 10 12 10 8 11 15 14 11 11 12 12 9 7 7 8 7 8 9 10 11 11 9 7 9 12 17 23 24 22 20 19 17 16 14 13 12 11 11 10 9 9 8 8 8 8 7 7 7 7 7 8 8 9 10 12 15 17 19 19 19 18 19 21 24 25 25 24 22 21 20 18 15 14 12 11 11 11 11 10 10 9 nan
nan 8 7 6 8 11 13 11 10 10 11 12 12 11 10 8 8 8 9 9 9 9 9 11 11 10 7 6 9 15 23 26 25 24 24 23 22 21 20 19 18 18 16 15 14 12 11 10 8 8 7 6 6 6 6 6 7 8 9 11 13 14 14 15 16 19 23 24 23 22 21 19 18 16 14 11 10 9 9 10 10 10 9 8 8 nan
nan 9 9 8 8 8 10 11 10 8 8 8 8 7 7 8 8 8 8 8 9 9 8 8 9 11 9 6 6 11 17 22 23 25 26 26 26 26 25 26 26 26 25 24 23 21 20 18 17 15 13 11 9 9 8 7 7 8 8 9 10 10 11 13 16 19 22 22 21 20 19 17 15 14 12 9 8 7 8 9 10 10 10 9 8 nan
nan 9 9 10 10 9 8 8 8 7 5 5 5 6 7 9 10 10 9 8 8 8 8 8 8 9 9 7 5 5 8 12 15 18 21 23 24 25 25 26 27 28 29 30 30 30 30 30 29 28 26 24 21 19 17 15 14 14 14 16 17 17 20 23 26 28 28 26 25 24 22 20 17 17 14 11 11 9 9 10 11 12 11 11 10 nan
nan 9 10 11 11 10 9 9 9 7 6 5 5 6 7 8 9 10 10 10 9 8 8 8 8 8 8 7 4 2 1 2 4 6 10 13 15 17 19 21 22 23 25 27 29 31 33 34 35 35 37 37 36 34 32 30 28 27 28 29 32 35 38 41 42 42 38 36 35 34 31 29 27 27 25 22 21 17 15 15 14 14 14 14 13 nan
nan 9 10 10 10 10 9 9 9 9 9 8 7 6 6 7 7 8 8 9 10 10 9 8 8 8 8 7 5 4 3 2 1 0 1 2 4 6 10 12 15 17 19 21 23 25 27 29 30 32 35 38 40 42 42 40 38 37 36 37 40 43 43 44 45 43 38 37 37 34 34 33 32 33 32 31 28 25 21 18 17 15 15 15 15 nan
nan 10 9 10 9 9 8 8 9 10 10 10 9 9 7 7 7 6 6 7 8 10 10 9 8 7 7 7 8 8 9 9 10 10 9 7 6 5 5 5 6 9 14 15 17 18 20 21 22 23 25 29 32 35 38 39 38 37 35 33 33 33 32 30 29 27 25 24 23 22 22 23 23 25 26 26 26 24 21 18 17 15 15 15 15 nan
nan 10 9 9 9 10 10 9 9 9 10 10 10 10 9 8 6 5 5 6 7 9 11 10 9 7 6 6 7 8 7 6 8 10 13 15 15 13 8 6 5 4 7 10 11 13 14 15 15 16 16 18 20 22 25 28 30 30 28 25 23 21 19 16 15 14 12 11 11 11 11 12 12 13 15 17 19 20 20 20 18 17 16 15 15 nan
nan 9 9 8 9 10 11 11 11 11 10 9 8 9 10 9 8 8 6 5 6 8 9 10 10 9 7 6 6 7 6 3 -1 -3 -1 4 6 5 4 3 3 1 -1 2 4 6 9 10 10 10 10 11 12 13 15 17 19 20 20 19 17 16 14 13 11 10 9 8 7 7 6 6 7 7 9 10 13 15 18 20 20 20 18 17 15 nan
nan 8 8 9 9 9 9 10 11 12 9 7 7 8 8 8 9 11 9 8 7 7 8 8 8 9 10 9 7 7 7 7 4 -0 -3 -4 -3 -3 -3 -3 -5 -6 -8 -6 -6 -4 1 4 5 5 6 6 7 9 10 11 13 14 14 14 14 13 12 12 11 10 9 8 7 6 5 4 4 4 5 6 7 9 12 14 16 17 17 16 15 nan
nan 9 9 9 9 10 10 10 10 10 9 9 9 9 8 8 10 11 11 11 9 8 7 8 7 7 8 9 9 9 9 8 8 7 6 3 2 3 3 2 -0 -2 -4 -5 -6 -8 -6 -3 -2 0 4 4 5 7 8 10 10 10 10 10 10 10 10 9 9 9 8 7 7 6 5 4 3 3 3 3 3 4 5 6 7 9 10 10 10 nan
nan 9 10 10 10 10 11 11 10 9 9 9 10 11 11 11 11 12 11 10 9 9 9 9 9 7 6 7 9 10 10 9 8 7 8 7 7 9 9 8 8 7 6 5 3 -0 -2 -2 -3 -3 -1 2 3 4 5 6 8 9 8 7 7 8 7 7 7 7 7 7 7 6 5 5 4 3 3 3 2 2 2 2 2 3 4 4 5 nan
nan 9 9 9 9 9 10 10 9 9 8 9 11 12 12 12 11 11 11 10 9 8 8 8 8 7 6 6 7 10 11 11 9 7 7 6 7 9 11 10 9 10 10 9 7 4 4 6 5 3 1 5 8 8 8 7 7 6 6 7 6 6 6 7 7 7 7 7 7 6 6 6 5 4 4 4 3 2 2 1 1 2 2 2 3 nan
nan 9 10 10 9 9 9 9 9 9 9 11 12 11 10 9 9 10 10 9 8 7 6 5 4 5 6 7 7 9 12 12 10 8 7 5 6 8 12 12 9 9 10 9 8 7 6 9 9 9 10 13 14 13 12 11 9 7 7 7 7 7 7 7 7 8 7 7 7 7 6 6 6 5 5 5 4 3 3 3 2 2 2 3 3 nan
nan 10 10 10 10 10 9 9 10 10 10 10 10 10 9 9 9 9 9 7 7 7 7 6 5 5 7 7 7 9 11 12 10 9 6 6 5 7 12 13 10 9 8 8 8 8 9 10 11 11 13 14 14 12 12 12 11 9 9 9 8 8 8 8 8 8 8 8 8 7 7 7 6 6 6 5 5 5 4 4 4 4 4 4 4 nan
nan 10 10 10 11 11 10 8 9 10 10 9 9 9 9 10 10 10 9 8 8 8 8 7 8 9 10 9 9 8 9 12 11 9 7 6 6 7 11 13 11 9 8 7 8 8 10 12 14 16 17 14 12 11 11 11 11 10 9 9 9 9 9 9 8 8 8 7 7 7 7 6 6 6 6 6 6 5 5 5 5 5 5 6 5 nan
nan 10 10 11 11 12 10 9 9 10 10 10 10 9 9 9 10 10 9 9 9 9 8 8 9 10 11 12 10 8 9 11 10 9 7 7 7 8 10 12 10 9 7 6 6 8 10 11 13 15 16 12 10 10 10 10 9 9 9 9 9 9 9 9 8 8 7 7 7 6 6 6 6 5 6 6 6 6 6 6 6 6 6 6 6 nan
nan 11 11 12 12 11 10 10 11 11 11 11 10 9 9 9 9 9 9 9 9 9 9 10 10 10 11 12 10 8 10 11 10 8 7 7 7 7 10 12 10 8 7 7 7 8 10 11 9 8 8 9 9 9 9 8 8 8 8 8 8 8 9 9 8 8 7 7 6 6 6 6 6 6 6 6 6 6 6 6 6 6 7 7 7 nan
nan 11 12 13 12 11 11 13 14 14 12 10 9 9 9 9 9 9 9 9 10 9 10 10 11 12 13 12 9 7 9 13 11 8 6 6 7 7 9 11 10 8 7 7 8 9 10 10 9 7 7 9 9 9 8 7 7 7 7 7 7 7 8 8 8 7 7 7 6 6 6 6 6 6 6 6 6 6 6 6 7 7 7 7 8 nan
nan 13 14 13 12 13 15 17 16 14 11 8 7 8 9 10 10 10 9 9 10 10 11 11 12 13 14 11 8 6 10 14 13 10 8 8 8 8 9 11 10 8 6 7 8 9 10 10 11 11 9 9 9 9 8 7 7 6 6 6 6 7 6 6 7 7 6 6 6 6 6 6 6 6 6 6 6 6 7 7 7 8 8 8 8 nan
nan 13 12 12 13 15 16 15 14 12 9 8 8 9 11 13 12 12 10 10 10 11 11 12 12 12 11 10 8 7 9 12 13 11 10 9 9 8 9 11 10 9 7 8 8 8 9 9 10 9 6 8 9 10 10 9 8 7 6 6 6 5 5 5 6 6 6 6 6 6 6 6 6 6 6 6 6 7 7 7 8 8 8 8 8 nan
nan 12 10 12 13 15 15 14 13 11 9 9 10 12 14 15 15 14 14 14 13 12 10 9 8 8 8 8 7 6 7 10 12 12 11 10 10 9 10 10 10 9 8 8 8 9 9 9 8 7 3 2 6 9 10 10 10 9 8 7 6 6 5 5 6 6 6 6 7 7 7 7 7 7 7 7 7 7 7 8 8 8 8 8 8 nan
nan 15 15 17 19 20 20 19 18 16 14 12 11 12 12 13 13 13 13 13 12 11 9 7 6 6 6 6 6 6 7 9 12 14 13 11 10 9 9 10 10 9 8 8 9 10 10 9 8 7 4 -0 1 4 7 8 9 9 9 9 8 8 7 7 8 8 8 8 8 8 8 8 8 8 8 7 7 7 7 7 7 7 7 8 8 nan
nan 24 25 25 24 23 23 22 21 20 18 16 14 12 10 8 8 8 9 9 9 9 7 5 6 7 8 8 7 7 7 8 11 14 13 13 11 9 9 10 11 11 9 8 9 10 10 9 8 7 6 2 -0 1 5 7 8 8 8 8 9 9 10 10 10 10 10 10 10 10 9 9 8 8 8 8 8 7 7 7 7 7 7 8 9 nan
nan 25 24 22 20 18 17 17 16 16 16 16 16 14 9 7 6 7 8 9 9 8 6 6 6 7 8 9 8 8 8 9 10 11 12 13 12 10 10 10 11 10 9 8 8 9 10 9 8 8 8 6 3 0 3 8 10 9 8 8 8 10 11 12 11 11 11 10 10 9 9 8 8 8 7 8 7 7 8 8 8 8 8 9 11 nan
nan 17 17 16 15 14 12 11 11 11 12 13 12 9 7 7 7 8 9 9 9 8 8 9 8 8 9 10 9 8 8 9 9 10 11 12 11 11 11 10 10 9 7 6 7 8 9 9 9 9 8 8 6 3 3 8 12 14 12 10 10 11 12 12 12 11 10 9 9 8 8 8 8 7 8 8 8 8 8 8 9 9 10 11 12 nan
nan 6 9 11 11 11 9 8 8 8 8 8 7 6 8 11 11 12 12 10 9 8 9 10 10 10 10 10 9 9 9 9 9 9 11 11 11 11 11 10 9 9 7 7 7 7 7 8 8 9 8 9 9 7 5 8 13 16 18 17 15 15 15 14 12 11 11 10 9 9 9 9 9 9 9 9 10 10 10 10 10 11 12 12 12 nan
nan -2 -0 2 5 6 6 5 4 2 3 4 7 10 14 16 15 15 13 11 9 10 10 10 11 11 10 8 8 9 10 11 10 9 10 11 11 12 11 10 9 8 7 7 7 8 8 8 8 9 8 9 9 9 8 9 11 15 19 21 19 18 17 16 15 13 12 12 11 11 10 10 11 11 11 11 12 12 12 12 11 11 12 12 11 nan
nan 2 1 1 3 4 4 4 3 0 -1 2 6 10 15 16 16 15 13 11 11 11 12 11 11 10 8 7 8 10 12 13 12 10 10 12 12 14 12 9 8 7 7 9 10 10 9 8 8 8 8 8 9 9 10 10 11 13 15 17 16 14 15 14 14 13 13 12 12 12 12 12 12 12 12 12 13 13 13 13 13 12 10 10 9 nan
nan 6 6 6 6 7 7 7 6 4 3 3 5 8 11 13 14 14 13 12 13 14 13 12 11 10 8 8 10 11 13 14 14 11 10 11 12 14 12 9 8 6 7 9 11 13 13 10 9 9 9 8 8 8 9 10 11 12 13 13 11 9 9 9 9 9 9 10 10 10 11 11 11 11 11 11 12 11 12 13 13 12 10 9 10 nan
nan 9 8 8 8 9 9 9 9 9 8 8 8 8 9 10 11 12 13 13 14 15 15 14 11 10 8 9 11 12 13 15 15 12 9 9 11 13 12 10 9 8 7 8 11 13 14 13 12 11 10 9 8 9 9 9 10 11 12 11 10 9 6 5 5 5 6 6 7 7 8 8 9 9 9 10 10 10 10 11 11 12 11 11 11 nan
nan 10 9 9 9 9 9 10 10 11 10 10 10 10 10 10 9 10 12 13 13 14 15 15 14 12 9 8 10 11 12 14 14 11 8 9 12 13 13 10 9 9 8 8 9 11 12 12 12 11 10 10 9 9 9 8 9 10 11 11 10 9 8 6 6 6 5 5 5 6 6 6 7 7 7 7 8 9 9 9 9 10 11 11 11 nan
nan 8 8 9 9 9 9 9 9 10 10 9 9 10 11 11 10 10 10 12 12 13 14 14 15 14 12 12 12 12 13 14 13 9 7 9 12 13 13 11 10 9 8 8 8 9 10 11 12 11 10 10 10 9 9 8 8 8 10 10 10 10 10 9 8 8 7 6 6 7 7 7 7 7 6 7 7 7 7 8 8 9 10 9 9 nan
nan 7 8 9 9 9 9 8 9 9 9 9 9 10 11 11 11 11 11 11 11 12 12 13 14 15 16 17 17 18 17 15 12 8 7 9 12 13 13 12 12 10 8 8 8 8 10 11 11 11 9 9 10 11 10 9 8 8 8 9 9 9 10 10 10 10 9 9 9 9 9 9 9 9 8 8 8 7 7 7 7 8 8 8 8 nan
nan 7 8 9 10 9 9 8 8 8 9 9 10 10 11 12 12 12 11 12 12 12 10 10 11 14 20 22 21 20 19 16 13 10 9 10 11 12 13 14 13 11 9 9 9 9 9 10 10 10 9 9 10 12 13 11 10 9 9 9 9 9 9 10 10 11 11 10 10 10 10 10 10 10 9 7 7 6 7 8 8 8 8 9 9 nan
nan 8 9 9 10 10 9 9 9 9 9 10 10 10 11 12 12 12 11 11 12 13 12 10 9 8 13 20 20 19 16 15 13 12 12 12 12 12 13 13 13 11 10 10 10 9 8 8 8 8 9 10 11 12 13 12 11 11 10 10 9 9 9 9 10 10 11 11 11 11 10 10 10 10 8 7 7 8 9 10 10 10 10 12 13 nan
nan 9 9 10 10 11 10 10 9 10 10 11 11 11 10 10 9 10 11 10 10 11 13 13 10 6 5 9 10 12 12 10 9 10 11 13 14 14 13 13 13 12 11 10 10 10 8 8 8 9 10 10 11 11 11 12 12 11 10 9 10 10 10 10 10 9 10 11 11 10 10 9 9 9 8 8 9 9 10 11 11 11 12 14 16 nan
nan 9 9 9 10 11 11 11 10 10 11 11 11 10 9 8 7 7 9 9 9 9 9 10 10 8 6 5 5 7 9 10 10 11 11 13 15 16 15 15 14 13 11 11 11 11 10 9 10 11 11 12 12 11 11 12 12 11 8 7 10 13 13 10 9 9 10 10 10 10 9 9 9 9 9 9 9 10 10 10 10 10 11 12 13 nan
nan 9 9 8 9 10 11 11 11 11 12 11 10 9 9 9 8 7 7 8 8 7 6 5 6 6 6 5 5 6 9 11 12 13 13 14 15 17 17 15 15 14 12 11 11 11 12 12 13 12 12 12 12 12 12 13 13 12 7 6 9 13 14 11 10 10 10 10 10 9 9 9 9 9 10 10 10 10 9 8 8 9 10 11 10 nan
nan 9 9 9 9 10 10 10 10 11 11 10 10 9 10 11 11 10 9 8 8 9 8 6 6 6 5 5 4 5 8 11 12 12 13 15 17 18 17 16 15 14 13 12 12 12 12 13 14 13 13 12 12 11 12 13 13 11 9 9 10 11 10 10 10 10 10 10 10 9 9 9 10 10 10 10 10 10 10 9 9 9 9 10 10 nan
nan 9 10 10 10 11 10 9 9 9 9 10 9 9 10 12 13 13 11 10 10 10 10 9 8 8 7 6 5 5 6 8 9 11 12 14 16 17 16 16 15 15 14 12 11 11 11 12 12 12 12 13 13 13 12 12 12 11 11 11 10 8 9 11 11 10 10 9 9 10 11 11 10 10 10 10 10 11 11 11 11 11 10 9 10 nan
nan 9 9 9 10 10 10 9 9 10 10 10 10 9 10 12 13 13 12 11 11 10 10 9 9 8 7 8 7 7 5 4 3 5 7 10 14 16 15 14 14 14 15 15 13 12 10 9 9 9 10 13 14 14 13 12 11 11 11 11 10 9 10 11 12 11 10 9 9 9 10 10 10 10 11 11 11 12 11 12 12 12 11 10 10 nan
nan 9 9 10 10 10 10 10 10 10 11 11 10 10 10 11 12 12 12 11 11 10 11 10 8 7 7 8 8 7 6 5 3 2 1 3 7 11 13 12 12 12 13 14 14 14 13 10 9 8 9 11 13 13 12 12 11 10 10 10 10 9 10 10 11 11 11 10 9 8 9 9 10 11 12 12 12 11 11 11 10 11 11 11 11 nan
nan 10 10 10 10 10 10 10 11 11 11 10 10 10 10 11 12 12 12 11 10 10 10 10 10 11 11 10 9 8 8 7 6 5 4 3 4 6 8 9 10 11 11 11 12 13 15 13 12 10 10 10 10 10 11 11 11 11 10 10 10 10 9 9 9 10 11 10 9 7 7 10 11 12 11 10 11 11 11 12 11 10 10 11 11 nan
nan 10 10 11 11 10 10 10 11 11 11 10 10 11 11 11 12 12 11 10 10 10 10 11 12 13 13 11 10 10 10 9 8 8 7 6 6 6 7 7 8 9 11 10 10 11 12 12 12 12 12 11 11 10 10 10 11 11 11 11 11 11 10 9 9 9 9 9 9 8 8 11 12 12 11 11 11 11 12 12 12 12 11 10 10 nan
nan 10 10 11 11 11 10 10 11 11 10 11 11 12 12 12 12 12 11 10 10 10 11 11 12 12 11 11 11 12 12 10 9 9 8 8 8 7 8 8 8 8 9 9 9 9 9 9 11 12 13 13 13 12 11 10 11 11 11 11 11 11 10 9 8 8 8 9 9 9 9 10 10 10 11 11 11 10 11 11 12 12 12 11 10 nan
nan 11 11 11 11 11 11 11 11 11 10 11 11 11 11 11 11 11 11 11 11 11 11 12 12 11 10 11 11 12 11 9 9 9 9 8 8 8 8 9 9 9 9 9 8 8 7 7 8 10 13 14 15 14 13 11 11 10 10 11 11 11 10 8 8 7 8 10 10 9 8 7 8 9 10 10 10 9 9 11 12 13 12 12 11 nan
nan 11 11 12 11 11 11 11 11 11 10 10 10 10 10 10 10 10 11 11 11 12 12 12 12 11 11 11 11 10 9 9 9 9 9 9 8 9 9 9 10 11 11 10 9 8 6 5 5 6 9 13 16 17 15 12 10 10 9 9 9 9 9 9 8 8 9 10 11 10 9 8 9 9 10 10 10 10 10 12 12 12 12 11 10 nan
nan nan nan nan nan nan nan nan nan nan nan nan nan nan nan nan nan nan nan nan nan nan nan nan nan nan nan nan nan nan nan nan nan nan nan nan nan nan nan nan nan nan nan nan nan nan nan nan nan nan nan nan nan nan nan nan nan nan nan nan nan nan nan nan nan nan nan nan nan nan nan nan nan nan nan nan nan nan nan nan nan nan nan nan nan nan
CAPE
nan 0 nan nan nan nan nan nan nan nan nan 0 0 0 0 0 0 0 0 nan nan nan nan 0 0 0 nan nan nan nan nan nan nan nan nan nan nan nan nan nan nan nan nan nan nan nan nan nan nan nan nan nan nan nan nan nan nan nan nan nan nan nan nan nan nan nan nan nan nan nan nan nan nan nan nan nan nan nan nan nan nan nan 0 5 5 17
nan nan nan nan nan nan nan nan nan nan nan nan 0 0 0 0 0 0 1 0 0 0 nan 0 0 1 1 nan nan nan nan nan nan nan nan nan nan nan nan nan nan nan nan nan nan nan nan nan nan nan nan nan nan nan nan nan nan nan nan nan nan nan nan nan nan nan nan nan nan nan nan nan nan nan nan nan nan nan nan nan nan 0 3 10 10 20
nan nan 0 nan nan nan nan nan nan nan nan nan 0 0 0 0 0 0 1 1 1 0 nan 0 0 0 1 0 nan nan nan nan nan nan nan nan nan nan nan nan nan nan nan nan nan nan nan nan nan nan nan nan nan nan nan nan nan nan nan nan nan nan nan nan nan nan nan nan nan nan nan nan nan nan nan nan nan nan 0 1 1 3 8 15 15 23
nan nan 0 0 0 nan nan nan nan nan nan 0 0 0 0 0 0 0 0 0 0 1 0 nan nan 0 1 1 nan nan nan nan nan nan nan nan nan nan nan nan nan nan nan nan nan nan nan nan nan nan nan nan nan nan nan nan nan nan nan nan nan nan nan nan nan nan nan nan nan nan nan nan nan nan nan nan 0 0 3 4 4 7 12 18 18 24
nan nan nan 0 0 0 0 0 nan nan 0 0 0 0 0 0 0 0 0 1 1 0 0 0 0 0 0 1 nan nan nan nan nan nan nan nan nan nan nan nan nan nan nan nan nan nan nan nan nan nan nan nan nan nan nan nan nan nan nan nan nan nan nan nan nan nan nan nan nan nan nan nan nan nan nan nan 1 1 6 8 8 12 18 22 22 25
0 0 0 0 0 0 1 1 0 0 1 0 0 0 nan nan nan nan 0 nan nan 0 0 0 0 0 0 0 1 1 nan nan nan nan nan nan nan nan nan nan nan nan nan nan nan nan nan nan nan nan nan nan nan nan nan nan nan nan nan nan nan nan nan nan nan nan nan nan nan nan nan nan nan nan nan nan 2 2 7 10 10 14 21 27 27 30
nan 0 0 0 0 0 1 0 0 0 0 0 0 0 nan 0 0 0 nan nan nan nan 0 0 0 nan 0 0 1 1 0 nan nan nan nan nan nan nan nan nan nan nan nan nan nan nan nan nan nan nan nan nan nan nan nan nan nan nan nan nan nan nan nan nan nan nan nan nan nan nan nan nan nan nan nan nan 2 2 6 10 10 13 18 27 27 32
nan nan 0 nan nan nan 0 1 1 1 0 nan nan nan 0 nan 0 0 0 nan nan nan nan nan nan nan nan nan 0 0 0 0 0 0 1 1 1 1 0 nan nan nan nan nan nan nan nan nan nan nan nan nan nan nan nan nan nan nan nan nan nan nan nan nan nan nan nan nan nan nan nan nan nan nan nan nan nan nan 2 8 8 11 14 17 17 23
nan nan nan 0 0 nan nan 0 0 0 1 nan nan nan 0 0 0 0 nan nan nan nan nan nan nan nan 0 0 0 0 0 2 1 1 1 1 1 1 2 1 1 2 1 0 0 0 0 0 0 nan nan nan nan nan nan nan nan nan nan nan nan nan nan nan nan nan nan nan nan nan nan 0 0 0 1 1 3 3 4 7 7 13 18 22 22 26
0 0 0 0 0 0 0 nan 0 0 1 0 nan nan 0 0 0 0 nan 0 0 0 0 nan nan nan nan nan 0 0 0 2 5 5 6 nan 5 5 1 1 1 3 2 3 3 2 2 2 2 1 0 0 0 0 0 nan nan nan nan nan nan nan nan nan nan nan nan nan nan nan 0 0 1 1 1 2 2 2 2 4 4 13 20 24 24 25
0 0 0 0 0 0 0 0 0 0 0 nan nan nan nan 0 0 0 nan 0 0 0 0 0 0 nan 0 0 1 1 0 0 0 0 3 1 2 2 1 1 1 2 3 4 4 4 5 4 4 3 3 3 2 2 1 0 0 0 0 nan nan nan nan nan nan nan 0 0 1 1 1 2 3 3 4 4 4 4 2 2 2 3 6 17 17 19
0 0 0 1 1 0 0 nan 0 0 0 nan nan nan 0 nan 1 1 nan 0 0 0 0 0 0 0 0 0 1 1 1 0 nan nan 0 1 1 1 1 1 1 2 3 5 5 6 7 6 6 5 5 3 3 3 2 2 2 2 2 2 2 3 3 4 4 3 4 5 5 5 6 6 7 7 6 6 4 4 3 3 3 2 3 4 4 10
0 0 0 0 0 0 0 nan 0 0 0 nan 0 0 nan nan nan nan 0 0 0 0 0 0 0 1 1 0 1 1 1 1 1 1 0 0 0 0 0 1 1 nan 1 2 2 3 7 7 7 6 5 5 5 5 4 4 4 4 6 7 7 7 8 8 8 9 10 10 9 9 8 7 5 5 4 4 3 3 3 2 2 3 3 4 4 5
nan 0 0 0 0 1 0 0 0 0 0 0 0 0 0 0 nan nan 0 0 0 0 1 1 1 1 1 1 1 1 1 1 1 1 0 0 0 0 1 0 0 0 0 0 0 0 4 3 3 3 4 4 3 3 4 4 4 4 6 7 7 7 8 8 8 8 8 7 6 6 5 4 3 3 3 3 3 3 2 3 3 3 3 3 3 3
nan 0 nan 1 1 1 1 1 1 1 1 1 0 0 0 0 0 0 0 0 0 0 0 0 0 0 0 1 1 1 1 2 0 0 0 0 1 1 1 1 1 1 0 0 0 0 3 2 2 2 2 3 3 3 3 3 3 3 3 3 3 3 3 3 3 4 4 4 4 4 4 3 4 4 3 3 3 3 3 3 3 3 2 2 2 1
0 0 nan 0 0 1 1 2 1 1 1 1 1 1 0 0 0 0 0 0 0 0 0 0 0 0 0 2 1 1 1 1 1 1 1 1 1 1 2 1 1 1 1 0 0 0 1 1 1 2 2 4 3 3 2 5 5 4 3 3 3 3 3 3 3 4 4 5 4 4 5 5 6 6 6 6 5 5 4 3 3 2 1 1 1 1
1 1 0 0 0 1 2 2 2 2 2 1 1 1 0 1 1 1 0 0 0 0 nan nan nan nan 0 1 1 1 1 1 1 1 1 1 1 1 2 3 3 1 1 0 0 0 1 3 3 3 6 7 4 4 3 4 4 5 5 6 6 5 5 5 5 5 6 6 7 7 8 9 8 8 8 7 6 6 4 3 3 3 2 3 3 3
1 2 2 2 2 2 2 1 1 1 2 1 1 1 1 2 2 2 0 nan nan 0 0 nan nan 0 0 1 1 1 2 2 2 2 1 1 2 2 4 3 3 2 1 1 1 1 1 3 3 6 9 9 7 7 6 7 7 7 7 6 6 6 7 6 6 8 8 8 10 10 9 10 10 10 10 9 8 8 7 6 6 6 6 6 6 8
2 3 3 3 3 2 3 3 2 2 1 1 1 1 1 2 2 2 1 0 0 0 0 0 0 0 0 0 1 1 1 2 1 1 1 1 1 1 3 4 4 2 1 1 1 1 1 1 1 10 12 9 9 9 8 9 9 9 9 8 8 8 8 10 10 9 10 11 11 11 11 11 12 12 12 11 10 10 10 11 11 11 13 13 13 13
2 2 2 1 1 1 2 3 3 3 3 5 4 4 2 1 1 1 1 2 2 2 1 0 0 0 0 1 1 1 1 1 1 1 1 1 2 2 2 4 4 2 1 1 1 1 1 0 0 4 10 9 11 11 11 11 11 11 11 11 11 11 10 12 12 13 13 12 13 13 12 13 12 12 14 13 14 14 13 13 13 14 15 14 14 15
0 1 1 0 0 0 1 2 3 3 4 6 5 5 4 2 2 2 2 2 2 2 2 1 1 1 1 1 1 1 2 2 0 0 1 2 2 2 2 3 3 1 1 1 1 1 1 0 0 0 11 12 11 11 12 12 12 13 12 12 12 12 13 13 13 13 13 14 13 13 13 13 13 13 13 13 13 13 13 14 14 15 14 15 15 16
0 0 0 1 1 nan nan 1 3 3 3 5 2 2 2 2 2 2 1 1 1 1 0 0 0 1 1 1 1 1 nan 1 0 0 0 1 2 2 2 3 3 1 1 1 1 0 0 0 0 1 13 15 14 14 13 12 12 12 13 12 12 12 11 11 11 13 14 14 15 15 15 15 13 13 13 13 13 13 12 13 13 13 13 13 13 14
0 0 1 1 1 0 0 1 3 3 3 4 1 1 1 1 1 1 1 1 1 nan nan 0 0 1 0 0 0 0 nan nan nan nan 0 0 1 1 1 1 1 0 1 1 1 1 1 1 1 1 12 13 14 14 13 12 12 12 13 12 12 12 12 12 12 13 14 15 15 15 14 15 13 13 15 13 14 14 13 13 13 12 12 11 11 12
1 1 2 2 2 2 2 2 3 3 4 3 2 2 4 2 2 2 2 0 0 nan nan 0 0 0 0 1 0 0 nan nan nan nan nan 0 1 1 0 0 0 1 1 2 2 2 2 2 2 2 4 9 12 12 9 9 9 12 12 12 12 12 12 13 13 13 13 15 15 15 15 16 14 14 15 13 12 12 13 11 11 11 11 10 10 12
1 1 1 2 2 2 2 3 3 3 2 2 2 2 2 1 0 0 nan nan nan nan 0 0 0 0 0 2 0 0 nan nan nan nan nan nan 1 1 0 0 0 1 1 1 1 2 1 2 2 4 4 4 7 7 8 8 8 8 9 11 11 12 12 13 13 13 13 15 15 15 13 15 14 14 12 12 10 10 11 12 12 10 11 12 12 12
1 1 1 2 2 2 1 1 1 1 1 1 1 1 0 nan nan nan nan 0 0 0 0 0 0 0 0 1 0 0 nan nan nan nan nan nan 0 0 0 0 0 0 0 0 0 1 2 1 1 2 2 2 5 5 3 4 4 5 6 8 8 10 12 12 12 14 13 13 14 14 13 13 12 12 11 12 10 10 10 12 12 11 11 12 12 13
2 3 3 3 3 3 3 2 2 2 1 nan nan nan nan 0 0 0 0 0 0 1 0 0 0 0 0 0 0 0 0 nan nan nan nan nan nan nan 0 nan nan nan 0 0 0 1 2 0 0 0 0 nan 1 1 3 3 3 2 2 6 6 8 10 11 11 12 11 12 11 11 11 12 13 13 12 10 10 10 12 13 13 13 13 13 13 13
6 6 6 5 5 6 6 5 4 4 2 0 nan nan nan nan 0 0 0 1 1 1 1 0 0 0 0 0 0 0 0 nan nan nan nan nan nan nan 0 nan nan nan 0 1 1 3 3 0 0 nan nan nan nan nan 0 1 1 2 2 3 3 7 10 10 10 11 12 13 11 11 11 12 11 11 11 10 11 11 12 13 13 12 13 10 10 10
2 4 7 8 8 9 8 7 7 7 4 2 0 0 nan nan 0 0 1 1 1 1 1 0 0 0 0 0 nan nan nan nan nan nan nan nan nan nan 0 0 0 nan 0 1 1 1 nan nan nan nan nan nan nan nan nan nan nan 0 2 3 3 7 10 10 10 11 12 12 10 10 10 9 9 9 9 8 10 10 10 10 10 12 9 8 8 5
nan nan 1 1 1 6 9 8 10 10 9 5 2 2 nan 0 0 0 nan 0 0 1 1 nan nan nan nan nan nan nan nan nan nan nan nan nan nan nan 0 0 0 nan 0 nan nan nan nan nan nan nan nan nan nan nan nan nan nan nan 3 7 7 8 9 12 12 10 10 9 7 7 6 5 5 5 5 5 6 6 5 5 5 6 4 3 3 1
nan nan nan nan nan nan 1 2 4 4 6 3 1 1 nan 0 0 0 nan nan nan 1 0 nan nan nan nan nan 0 0 0 nan nan nan nan nan nan nan 0 0 0 0 nan nan nan nan nan nan nan 0 nan nan nan nan nan nan nan nan nan 5 5 12 6 3 3 5 5 3 3 3 2 2 1 1 1 1 0 0 1 2 2 3 3 2 2 0
nan nan nan nan nan nan nan nan nan nan nan nan nan nan nan nan nan nan nan nan nan nan nan nan nan nan nan nan nan nan nan nan nan nan nan nan 0 0 0 nan nan nan nan nan nan nan nan nan nan 1 0 nan nan nan nan nan nan nan nan 0 0 0 nan 0 0 0 0 0 nan nan nan nan nan nan nan nan nan nan nan nan nan nan 1 1 1 0
nan nan nan nan nan nan nan nan nan nan nan nan nan nan nan nan nan nan nan nan nan nan nan nan nan nan nan nan nan nan nan nan nan nan nan nan nan nan 0 nan nan nan nan nan nan nan nan 0 0 1 0 nan nan nan nan nan nan nan nan nan nan nan nan 0 0 0 nan nan nan nan nan nan nan nan nan nan nan nan nan nan nan nan 1 1 1 1
nan nan nan nan nan nan nan nan nan nan nan nan nan nan nan nan nan nan nan nan nan nan nan nan nan nan nan nan nan nan nan 0 0 0 nan nan nan nan 0 nan nan nan nan nan nan nan nan nan nan nan nan nan nan nan nan nan nan nan nan nan nan nan nan nan nan nan nan nan nan nan nan nan nan nan nan nan nan nan nan nan nan nan nan 0 0 0
nan nan nan nan nan nan nan nan nan nan nan nan nan nan nan nan nan nan nan nan nan nan nan nan nan nan nan nan nan nan nan nan 0 0 nan nan nan nan nan 0 0 nan nan nan nan nan nan nan nan nan nan nan 0 0 nan nan nan nan nan nan nan nan nan nan nan nan nan nan nan nan nan nan nan nan nan nan nan nan nan nan nan nan nan nan nan nan
nan nan nan nan nan nan nan nan nan nan nan nan nan nan nan nan nan nan nan nan nan nan nan nan nan nan nan nan nan nan nan nan 0 0 nan nan nan nan nan nan nan nan nan nan nan nan nan nan nan nan nan nan nan nan nan nan nan nan nan nan nan nan nan nan nan nan nan nan nan nan nan nan nan nan nan nan nan nan nan nan nan nan nan nan nan nan
nan nan nan nan nan nan nan nan nan nan nan nan nan nan nan nan nan nan nan nan nan nan nan nan nan nan nan nan nan nan nan nan nan nan nan nan nan nan nan nan nan nan nan nan nan nan nan nan nan nan nan nan nan nan nan nan nan nan nan nan nan nan nan nan nan nan nan nan nan nan nan nan nan nan nan nan nan nan nan nan nan nan nan nan nan nan
nan nan nan nan nan nan nan nan nan nan nan nan nan nan nan nan nan nan nan nan nan nan nan nan nan nan nan nan nan nan nan nan nan nan nan nan nan nan nan nan nan nan nan nan nan nan nan nan nan nan nan nan nan nan nan nan nan nan nan nan nan nan nan nan nan nan nan nan nan nan nan nan nan nan nan nan nan nan nan nan nan nan nan nan nan nan
nan nan nan nan nan nan nan nan nan nan nan nan nan nan nan nan nan nan nan nan nan nan nan nan nan nan nan nan nan nan nan nan nan nan nan nan nan nan nan nan nan nan nan nan nan nan nan nan nan nan nan nan nan nan nan nan nan nan nan nan nan nan nan nan nan nan nan nan nan nan nan nan nan nan nan nan nan nan nan nan nan nan nan nan nan nan
nan nan nan nan nan nan nan nan nan nan nan nan nan nan nan nan nan nan nan nan nan nan nan nan nan nan nan nan nan nan nan nan nan nan nan nan nan nan nan nan nan nan nan nan nan nan nan nan nan nan nan nan nan nan nan nan nan nan nan nan nan nan nan nan nan nan nan nan nan nan nan nan nan nan nan nan nan nan nan nan nan nan nan nan nan nan
nan nan nan nan nan nan nan nan nan nan nan nan nan nan nan nan nan nan nan nan nan nan nan nan nan nan nan nan nan nan nan nan nan nan nan nan nan nan nan nan nan nan nan nan nan nan nan nan nan nan nan nan nan nan nan nan nan nan nan nan nan nan nan 0 0 nan nan nan nan nan nan nan nan nan nan nan nan nan nan nan nan nan nan nan nan nan
nan nan nan nan nan nan nan nan nan nan nan nan nan nan nan nan nan nan nan nan nan nan nan nan nan nan nan nan nan nan 0 nan nan nan 0 nan nan nan nan nan nan nan nan nan nan nan nan nan nan nan nan nan nan nan nan nan nan nan nan nan nan nan nan 0 0 nan nan nan nan nan nan nan nan nan nan nan nan nan nan nan nan nan nan nan nan nan
nan nan nan nan nan nan nan nan nan nan nan nan nan nan nan nan nan nan nan nan nan nan nan nan nan nan nan nan 0 0 1 2 0 0 0 nan nan nan nan nan nan nan nan nan nan nan nan nan nan nan nan nan nan nan nan nan nan nan nan nan nan nan nan nan nan nan nan nan nan nan nan nan nan nan nan nan nan nan nan nan nan nan nan nan nan nan
nan nan nan nan nan nan nan nan nan nan nan nan nan nan nan nan nan nan nan nan nan nan nan nan nan nan nan nan 0 0 1 2 1 1 0 0 nan nan nan nan nan nan nan nan nan nan nan nan nan nan nan nan nan nan nan nan nan nan nan nan nan nan nan nan nan nan nan nan nan nan nan nan nan nan nan nan nan nan nan nan nan nan nan nan nan nan
nan nan nan nan nan nan nan nan nan nan nan nan nan nan nan nan nan nan nan nan nan nan nan nan nan nan nan nan 0 0 0 0 0 0 nan nan nan nan nan nan nan nan nan nan nan nan nan nan nan nan nan nan nan nan nan nan nan nan nan nan nan nan nan nan nan nan nan nan nan nan nan nan nan nan nan nan nan nan nan nan nan nan nan nan nan nan
nan nan nan nan nan nan nan nan nan nan nan nan nan nan nan nan nan nan nan nan nan nan nan nan nan nan nan nan 0 0 0 nan nan nan nan nan nan nan nan nan nan nan nan nan nan nan nan nan nan nan nan nan nan nan nan nan nan nan nan nan nan nan nan nan nan nan nan nan nan nan nan nan nan nan nan nan nan nan nan nan nan nan nan nan nan nan
nan nan nan nan nan nan nan nan nan nan nan nan nan nan nan nan nan nan nan nan nan nan nan nan nan nan nan nan nan nan 0 0 nan nan nan nan nan nan nan nan nan nan nan nan nan nan nan nan nan nan nan nan nan nan nan nan nan nan nan nan nan nan nan nan nan nan nan nan nan nan nan nan nan nan nan nan nan nan nan nan nan nan nan nan nan nan
nan nan nan nan nan nan nan nan nan nan nan nan nan nan nan nan nan nan nan nan nan nan nan nan nan nan nan nan nan nan nan 0 nan nan nan nan nan nan nan nan nan nan nan nan nan nan nan nan nan nan nan nan nan nan nan nan nan nan nan nan nan nan nan nan nan nan nan nan nan nan nan nan nan nan nan nan nan nan nan nan nan nan nan nan nan nan
nan nan nan nan nan nan nan nan nan nan nan nan nan nan 0 0 nan nan nan nan nan nan nan nan nan nan nan nan 0 0 0 nan nan nan nan nan nan nan nan nan nan nan nan nan nan nan nan nan nan nan nan nan nan nan nan nan nan nan nan nan nan nan nan nan nan nan nan nan nan nan nan nan nan nan nan nan nan nan nan nan nan nan nan nan nan nan
nan nan nan nan nan nan nan nan nan nan 0 0 1 1 1 0 nan nan nan nan nan nan nan nan nan nan nan 0 0 0 0 nan nan nan 0 nan nan nan nan nan nan nan nan nan nan nan nan nan nan nan nan nan nan nan nan nan nan nan nan nan nan nan nan nan nan nan nan nan nan nan 0 nan nan nan nan nan nan nan nan nan nan nan nan nan nan nan
nan nan nan nan nan nan nan 0 0 0 0 0 0 0 0 0 0 0 0 0 0 nan nan nan nan nan nan 0 0 0 0 nan 0 0 0 nan nan nan nan nan nan nan nan nan nan nan nan nan nan nan 0 1 0 0 nan nan nan nan nan nan nan nan nan nan nan nan nan nan 0 0 1 1 0 0 nan nan nan nan nan nan nan nan nan nan nan nan